Weather History for Maxwell AFB, AL

Change the Weather History Date:

Wednesday, August 14, 2013

  Actual Average Record
Temperature  
Mean Temperature 76 °F -  
Max Temperature 78 °F 90 °F 104 °F (2007)
Min Temperature 73 °F 71 °F 65 °F (2014)
Cooling Degree Days 10    
Growing Degree Days 26 (Base 50)    
Moisture  
Dew Point 74 °F    
Average Humidity 96    
Maximum Humidity 100    
Minimum Humidity 83    
Precipitation  
Precipitation 0.80 in - - ()
Sea Level Pressure  
Sea Level Pressure 29.95 in    
Wind  
Wind Speed 3 mph (North)    
Max Wind Speed 13 mph    
Max Gust Speed 18 mph    
Visibility 7 miles    
Events Fog , Rain , Thunderstorm    
Averages and records for this station are not official NWS values.
T = Trace of Precipitation, MM = Missing Value Source: NWS Daily Summary

Daily Weather History Graph

Daily Weather History Graph

Search for Another Location

Airport:

Trip Planner

Search our weather history database for the weather conditions in past years. The results will help you decide how hot, cold, wet, or windy it might be!

Date:

Astronomy

Aug. 14, 2013 Rise Set
Actual Time 6:08 AM CDT 7:30 PM CDT
Civil Twilight 5:43 AM CDT 7:56 PM CDT
Nautical Twilight 5:12 AM CDT 8:27 PM CDT
Astronomical Twilight 4:39 AM CDT 8:59 PM CDT
Moon 1:38 PM CDT (8/14) No Moon Set
Length of Visible Light 14h 13m
Length of Day
13h 21m
First Quarter, 53% of the Moon is Illuminated
Aug 14
First Quarter
Aug 20
Full
Aug 28
Last Quarter
Sep 5
New
Sep 12
First Quarter

Hourly Weather History & Observations

Time (CDT) Temp. Dew Point Humidity Pressure Visibility Wind Dir Wind Speed Gust Speed Precip Events Conditions
12:18 AM 75.2 °F 75.2 °F 100% 29.94 in 7.0 mi WSW 3.5 mph - N/A   Mostly Cloudy
12:43 AM 75.2 °F 75.2 °F 100% 29.95 in 10.0 mi WNW 3.5 mph - N/A   Mostly Cloudy
12:53 AM 75.2 °F 75.2 °F 100% 29.95 in 10.0 mi WNW 4.6 mph - N/A   Mostly Cloudy
12:58 AM 75.2 °F 75.2 °F 100% 29.96 in 10.0 mi WNW 3.5 mph - N/A   Mostly Cloudy
1:13 AM 75.2 °F 75.2 °F 100% 29.95 in 10.0 mi Variable 1.2 mph - N/A   Overcast
1:48 AM 75.2 °F 75.2 °F 100% 29.94 in 10.0 mi WSW 2.3 mph - N/A   Light Drizzle
1:58 AM 75.2 °F 75.2 °F 100% 29.94 in 10.0 mi WSW 2.3 mph - 0.00 in   Light Drizzle
2:13 AM 75.2 °F 75.2 °F 100% 29.94 in 9.0 mi Variable 2.3 mph - N/A   Light Drizzle
2:23 AM 75.2 °F 75.2 °F 100% 29.94 in 8.0 mi Variable 3.5 mph - N/A Rain Light Rain
2:43 AM 75.2 °F 75.2 °F 100% 29.93 in 8.0 mi West 1.2 mph - N/A Rain Light Rain
2:58 AM 75.2 °F 75.2 °F 100% 29.94 in 9.0 mi WNW 2.3 mph - 0.01 in   Light Drizzle
2:59 AM 75.2 °F 75.2 °F 100% 29.93 in 9.0 mi Variable 3.5 mph - N/A   Overcast
3:34 AM 75.2 °F 75.2 °F 100% 29.94 in 9.0 mi WNW 1.2 mph - N/A   Overcast
3:58 AM 75.2 °F 75.2 °F 100% 29.95 in 9.0 mi West 2.3 mph - 0.00 in   Overcast
4:58 AM 75.2 °F 75.2 °F 100% 29.95 in 7.0 mi Calm Calm - N/A   Overcast
5:48 AM 75.2 °F 75.2 °F 100% 29.94 in 8.0 mi Calm Calm - N/A   Overcast
5:58 AM 75.2 °F 75.2 °F 100% 29.95 in 7.0 mi Calm Calm - N/A   Mostly Cloudy
6:03 AM 75.2 °F 75.2 °F 100% 29.94 in 7.0 mi South 2.3 mph - N/A   Mostly Cloudy
6:08 AM 75.2 °F 73.4 °F 94% 29.94 in 6.0 mi SSW 3.5 mph - N/A   Overcast
6:23 AM 75.2 °F 73.4 °F 94% 29.95 in 7.0 mi SSW 2.3 mph - N/A   Overcast
6:28 AM 75.2 °F 73.4 °F 94% 29.95 in 7.0 mi SSW 2.3 mph - N/A   Overcast
6:43 AM 75.2 °F 73.4 °F 94% 29.96 in 7.0 mi South 2.3 mph - N/A   Overcast
6:58 AM 75.2 °F 73.4 °F 94% 29.97 in 7.0 mi South 2.3 mph - N/A   Overcast
7:03 AM 75.2 °F 73.4 °F 94% 29.96 in 8.0 mi Calm Calm - N/A   Overcast
7:38 AM 75.2 °F 75.2 °F 100% 29.95 in 8.0 mi SSW 2.3 mph - N/A   Overcast
7:48 AM 75.2 °F 75.2 °F 100% 29.95 in 8.0 mi SSW 2.3 mph - N/A   Overcast
7:58 AM 75.2 °F 75.2 °F 100% 29.96 in 8.0 mi SSW 1.2 mph - N/A   Overcast
8:23 AM 75.2 °F 75.2 °F 100% 29.95 in 9.0 mi SSW 1.2 mph - N/A   Overcast
8:43 AM 75.2 °F 75.2 °F 100% 29.95 in 10.0 mi Calm Calm - N/A   Overcast
8:48 AM 77.0 °F 75.2 °F 94% 29.96 in 10.0 mi Calm Calm - N/A   Overcast
8:58 AM 77.0 °F 75.2 °F 94% 29.97 in 10.0 mi West 3.5 mph - N/A   Overcast
9:08 AM 77.0 °F 75.2 °F 94% 29.96 in 10.0 mi WNW 3.5 mph - N/A   Overcast
9:13 AM 77.0 °F 75.2 °F 94% 29.96 in 10.0 mi Calm Calm - N/A   Overcast
9:48 AM 77.0 °F 75.2 °F 94% 29.96 in 10.0 mi Calm Calm - N/A   Overcast
9:49 AM 77.0 °F 75.2 °F 94% 29.96 in 10.0 mi Calm Calm - N/A   Light Drizzle
9:58 AM 77.0 °F 73.4 °F 89% 29.97 in 5.0 mi Calm Calm - 0.01 in Rain Light Rain
10:03 AM 77.0 °F 73.4 °F 89% 29.96 in 4.0 mi NNE 1.2 mph - N/A Rain Light Rain
10:08 AM 77.0 °F 73.4 °F 89% 29.96 in 8.0 mi Calm Calm - N/A   Light Drizzle
10:10 AM 77.0 °F 73.4 °F 89% 29.96 in 10.0 mi NW 2.3 mph - N/A   Overcast
10:27 AM 77.0 °F 75.2 °F 94% 29.96 in 10.0 mi WNW 2.3 mph - N/A Rain Light Rain
10:32 AM 77.0 °F 75.2 °F 94% 29.97 in 8.0 mi WNW 1.2 mph - N/A Rain Light Rain
10:47 AM 77.0 °F 75.2 °F 94% 29.97 in 10.0 mi NW 2.3 mph - N/A   Light Drizzle
10:58 AM 77.0 °F 75.2 °F 94% 29.98 in 9.0 mi NW 2.3 mph - 0.00 in   Light Drizzle
11:08 AM 77.0 °F 75.2 °F 94% 29.97 in 6.0 mi WNW 2.3 mph - N/A   Light Drizzle
11:18 AM 77.0 °F 75.2 °F 94% 29.97 in 8.0 mi Calm Calm - N/A   Light Drizzle
11:19 AM 77.0 °F 75.2 °F 94% 29.97 in 9.0 mi Calm Calm - N/A   Overcast
11:53 AM 78.8 °F 73.4 °F 83% 29.96 in 10.0 mi Calm Calm - N/A Rain Light Rain
11:58 AM 78.8 °F 73.4 °F 83% 29.97 in 10.0 mi Calm Calm - 0.01 in   Light Drizzle
12:03 PM 78.8 °F 73.4 °F 83% 29.96 in 10.0 mi Calm Calm - N/A Rain Light Rain
12:25 PM 78.8 °F 75.2 °F 89% 29.96 in 10.0 mi WNW 1.2 mph - N/A   Overcast
12:35 PM 78.8 °F 75.2 °F 89% 29.95 in 10.0 mi Calm Calm - N/A   Mostly Cloudy
12:54 PM 78.8 °F 75.2 °F 89% 29.94 in 9.0 mi Calm Calm - N/A Rain Light Rain
12:58 PM 78.8 °F 75.2 °F 89% 29.95 in 8.0 mi Calm Calm - 0.00 in Rain Light Rain
1:23 PM 77.0 °F 75.2 °F 94% 29.94 in 7.0 mi WNW 2.3 mph - N/A Rain Light Rain
1:33 PM 77.0 °F 75.2 °F 94% 29.94 in 6.0 mi Variable 1.2 mph - N/A Rain Light Rain
1:38 PM 78.8 °F 77.0 °F 94% 29.94 in 6.0 mi WNW 2.3 mph - N/A Rain Light Rain
1:58 PM 77.0 °F 75.2 °F 94% 29.95 in 4.0 mi NW 4.6 mph - 0.03 in Rain Light Rain
2:01 PM 77.0 °F 75.2 °F 94% 29.94 in 3.0 mi NW 5.8 mph - N/A Rain , Thunderstorm Thunderstorms and Rain
2:06 PM 77.0 °F 75.2 °F 94% 29.94 in 2.5 mi WNW 3.5 mph - N/A Rain , Thunderstorm Thunderstorms and Rain
2:41 PM 75.2 °F 73.4 °F 94% 29.94 in 1.5 mi NE 8.1 mph - N/A Rain Heavy Rain
2:46 PM 75.2 °F 73.4 °F 94% 29.94 in 1.2 mi NE 9.2 mph - N/A Rain Heavy Rain
2:51 PM 73.4 °F 73.4 °F 100% 29.94 in 1.8 mi NNE 12.7 mph - N/A Rain Rain
2:56 PM 73.4 °F 73.4 °F 100% 29.94 in 2.5 mi NNE 11.5 mph - N/A Rain Rain
2:58 PM 73.4 °F 73.4 °F 100% 29.95 in 2.5 mi NNE 12.7 mph 18.4 mph 0.19 in Rain Rain
3:03 PM 73.4 °F 73.4 °F 100% 29.93 in 3.0 mi NE 9.2 mph 18.4 mph N/A Rain Rain
3:13 PM 73.4 °F 73.4 °F 100% 29.93 in 5.0 mi NE 10.4 mph - N/A Rain Light Rain
3:18 PM 73.4 °F 73.4 °F 100% 29.92 in 7.0 mi NE 9.2 mph - N/A Rain Light Rain
3:38 PM 73.4 °F 73.4 °F 100% 29.93 in 2.5 mi NE 5.8 mph - N/A Rain Heavy Rain
3:43 PM 73.4 °F 73.4 °F 100% 29.93 in 1.5 mi NNE 2.3 mph - N/A Rain Rain
3:48 PM 73.4 °F 73.4 °F 100% 29.94 in 2.0 mi NNW 4.6 mph - N/A Rain Rain
3:58 PM 73.4 °F 73.4 °F 100% 29.96 in 2.0 mi NW 12.7 mph - 0.12 in Rain Light Rain
4:03 PM 73.4 °F 73.4 °F 100% 29.93 in 0.8 mi NE 8.1 mph - N/A Rain Heavy Rain
4:08 PM 73.4 °F 71.6 °F 94% 29.93 in 0.2 mi North 8.1 mph - N/A Fog , Rain Heavy Rain
4:13 PM 73.4 °F 71.6 °F 94% 29.93 in 0.2 mi NNE 8.1 mph - N/A Fog , Rain Heavy Rain
4:18 PM 73.4 °F 71.6 °F 94% 29.93 in 1.2 mi NE 8.1 mph - N/A Rain Light Rain
4:23 PM 73.4 °F 71.6 °F 94% 29.93 in 4.0 mi NE 8.1 mph - N/A Rain Light Rain
4:33 PM 73.4 °F 71.6 °F 94% 29.92 in 5.0 mi NE 6.9 mph - N/A Rain Light Rain
4:48 PM 73.4 °F 71.6 °F 94% 29.93 in 3.0 mi NE 6.9 mph - N/A Rain Rain
4:58 PM 73.4 °F 73.4 °F 100% 29.94 in 4.0 mi NE 4.6 mph - 0.38 in Rain Light Rain
5:03 PM 73.4 °F 73.4 °F 100% 29.93 in 4.0 mi NE 6.9 mph - N/A Rain Light Rain
5:08 PM 73.4 °F 73.4 °F 100% 29.93 in 3.0 mi NE 8.1 mph - N/A Rain Light Rain
5:13 PM 73.4 °F 73.4 °F 100% 29.93 in 2.5 mi NE 9.2 mph - N/A Rain Rain
5:18 PM 73.4 °F 73.4 °F 100% 29.93 in 3.0 mi NE 9.2 mph - N/A Rain Light Rain
5:28 PM 73.4 °F 73.4 °F 100% 29.93 in 7.0 mi NE 6.9 mph - N/A Rain Light Rain
5:47 PM 73.4 °F 73.4 °F 100% 29.94 in 10.0 mi NE 9.2 mph - N/A   Scattered Clouds
5:58 PM 73.4 °F 73.4 °F 100% 29.95 in 10.0 mi NE 8.1 mph - 0.05 in   Scattered Clouds
6:58 PM 73.4 °F 71.6 °F 94% 29.96 in 10.0 mi ENE 6.9 mph - N/A   Mostly Cloudy
7:58 PM 73.4 °F 71.6 °F 94% 29.96 in 10.0 mi NNE 4.6 mph - N/A   Overcast
8:58 PM 73.4 °F 73.4 °F 100% 29.98 in 10.0 mi NNE 1.2 mph - N/A   Overcast
9:58 PM 73.4 °F 71.6 °F 94% 29.99 in 10.0 mi NNE 5.8 mph - N/A   Scattered Clouds
10:58 PM 73.4 °F 71.6 °F 94% 29.99 in 10.0 mi East 1.2 mph - N/A   Overcast
11:35 PM 73.4 °F 71.6 °F 94% 29.98 in 9.0 mi SE 2.3 mph - N/A   Light Drizzle
11:44 PM 73.4 °F 71.6 °F 94% 29.98 in 10.0 mi ENE 2.3 mph - N/A   Overcast
11:58 PM 73.4 °F 71.6 °F 94% 29.99 in 10.0 mi East 3.5 mph - 0.00 in   Overcast